Theta_e
287 287 287 287 287 287 287 288 288 288 288 288 288 287 287 287 288 288 288 288 288 288 289 289 289 290 290 291 291 292 294 296 297 298 299 300 302 303 305 307 310 312 315 318 320 320 320 321 322 323 324 325 326 327 328 328 327 327 327 328 328 327 326 326 325 324 325 325 324 324 324 324 324 323 324 324 324 323 323 323 323 323 323 323 322
287 287 287 287 287 287 287 287 287 287 287 288 288 287 287 287 287 287 287 287 287 288 288 288 288 289 289 289 289 290 291 292 293 294 295 296 298 299 300 301 304 308 311 314 315 315 316 318 320 322 323 323 324 324 325 326 327 327 327 327 328 328 327 326 326 325 325 325 325 325 324 324 324 324 324 324 324 324 324 324 323 323 323 323 323
287 286 286 286 286 286 286 286 286 286 287 287 287 287 287 287 287 287 287 287 287 287 287 287 287 287 288 288 288 289 289 289 290 291 292 292 293 295 296 296 298 301 304 308 310 311 313 316 318 320 321 321 322 322 322 323 325 327 328 327 327 327 327 327 327 326 326 325 325 325 325 324 324 324 324 323 324 324 324 324 324 324 324 323 323
287 286 286 286 286 286 286 286 286 286 286 286 286 286 286 286 286 286 286 286 286 286 286 286 286 286 287 287 287 287 288 288 288 289 289 290 290 291 292 293 294 295 297 300 303 305 308 312 315 319 320 320 321 322 322 323 324 325 326 326 326 326 326 327 327 326 326 326 325 325 325 325 324 324 324 324 324 324 324 324 324 324 324 323 323
286 286 286 286 286 286 286 286 285 285 285 285 285 285 285 285 286 286 286 286 286 286 286 285 285 285 285 286 286 286 286 286 287 287 288 288 288 289 289 290 291 292 293 295 296 299 302 305 309 313 316 319 320 320 321 322 323 324 324 324 325 326 326 326 326 326 326 326 325 325 325 325 325 325 324 324 324 323 323 324 324 324 324 324 324
286 286 286 286 286 286 285 285 285 285 285 285 285 285 285 285 285 285 285 285 285 285 285 285 285 285 285 285 285 285 285 285 286 286 286 287 287 287 288 288 289 290 291 292 292 294 296 298 301 305 309 313 317 319 319 319 321 322 323 323 323 323 323 324 325 326 326 326 326 325 325 325 325 325 325 324 324 323 323 323 323 324 324 324 324
286 286 286 286 286 286 286 286 285 285 285 285 285 285 285 285 285 284 284 284 285 285 285 285 285 284 284 284 284 284 285 285 285 285 285 286 286 286 287 287 287 288 289 290 290 291 292 294 296 298 301 305 309 314 317 318 318 319 321 322 323 323 322 323 324 326 326 326 326 326 325 325 325 325 325 324 324 323 323 323 323 323 323 323 323
287 286 286 286 286 286 286 286 285 285 285 285 285 285 285 285 285 285 284 284 284 284 284 284 284 284 284 284 284 284 284 284 284 284 285 285 285 285 286 286 286 287 287 288 289 289 290 291 292 294 295 298 301 306 310 313 315 317 318 319 321 323 322 320 322 324 326 325 325 325 326 325 325 325 325 324 324 324 323 323 323 323 323 323 323
287 287 286 285 285 285 285 285 285 285 285 285 285 285 285 285 285 285 285 284 284 284 284 284 284 284 284 284 284 284 284 284 284 284 284 284 284 284 285 285 285 285 286 287 287 288 288 289 290 291 292 294 296 299 303 306 308 312 315 316 318 321 322 321 320 321 322 322 323 324 325 326 326 326 325 325 324 324 323 323 323 323 323 323 323
287 287 286 285 284 284 284 284 284 283 283 283 284 284 284 284 284 284 284 284 284 284 284 284 283 283 284 284 284 284 284 283 284 284 284 284 284 284 284 284 284 285 285 285 286 287 287 288 289 289 291 292 294 296 299 302 304 307 311 313 314 317 319 321 323 322 320 320 322 324 325 325 325 324 325 325 325 324 324 324 323 323 322 323 323
287 287 286 285 284 284 284 283 283 283 283 283 283 283 283 283 283 283 283 283 283 284 284 284 283 283 283 283 283 283 283 283 283 283 284 284 284 284 284 284 284 284 284 284 285 286 286 287 287 288 289 290 292 293 295 298 301 304 307 311 313 315 316 318 321 323 321 319 319 322 324 324 322 322 323 324 325 324 324 324 324 323 322 323 323
287 287 286 285 284 284 283 283 283 283 283 283 283 283 283 283 283 283 282 282 282 283 283 283 283 283 283 283 283 283 283 283 283 283 283 283 283 283 283 283 283 284 284 284 284 284 285 286 286 287 288 288 289 291 293 294 296 299 303 307 311 314 317 317 318 320 321 320 319 320 321 321 319 320 323 324 324 324 324 324 324 323 323 322 323
287 287 286 284 284 283 283 283 283 283 283 283 283 283 283 283 282 282 282 282 282 282 282 282 282 282 282 282 282 282 282 283 283 283 283 283 283 283 283 283 283 283 283 284 284 284 284 284 285 286 286 287 287 288 290 291 293 295 298 302 306 310 314 317 317 317 319 320 321 321 320 319 318 318 321 323 324 324 324 324 323 323 323 322 322
287 287 286 284 284 283 283 283 283 283 283 283 283 283 283 283 282 282 282 282 282 282 282 282 281 281 282 282 282 282 282 282 282 282 283 283 283 283 283 283 283 283 283 283 283 283 284 284 284 284 285 286 286 287 287 288 290 292 295 298 302 306 309 313 315 317 318 319 320 321 321 321 319 318 318 320 323 324 324 324 323 323 323 322 322
288 287 285 284 284 283 283 283 283 283 283 283 283 283 283 283 282 282 282 282 282 281 281 281 281 281 281 281 281 281 281 281 282 282 282 283 283 283 283 283 283 283 283 283 283 283 283 283 283 284 284 285 285 286 286 287 288 289 291 293 297 301 305 308 312 315 317 318 318 320 321 321 322 322 320 320 322 323 324 324 323 322 322 322 322
288 287 285 284 284 283 283 283 283 283 283 283 283 283 283 283 282 282 282 282 281 281 281 281 281 281 281 281 281 281 281 281 281 281 282 282 282 283 282 282 282 283 283 283 283 283 283 283 283 283 284 284 284 285 285 286 286 287 288 290 292 295 301 305 308 311 314 317 317 318 319 320 321 323 323 322 323 324 323 323 322 322 322 322 322
288 287 285 284 284 283 283 283 283 283 283 283 283 283 282 282 282 282 282 281 281 281 281 281 281 281 281 281 281 281 281 281 281 281 281 281 282 282 282 282 282 282 282 283 283 283 283 283 283 283 283 284 284 284 284 285 286 286 287 289 290 292 297 302 305 307 311 314 316 317 318 319 321 322 323 323 323 323 323 323 322 322 322 321 321
287 286 285 284 284 284 284 283 282 282 282 282 282 282 282 282 282 281 281 281 281 280 280 280 280 280 280 280 280 280 280 280 281 281 281 281 281 281 281 281 282 282 282 282 283 283 283 283 283 283 283 283 283 284 284 284 285 285 286 288 290 291 293 298 301 304 307 311 313 316 317 318 319 320 322 323 323 323 323 323 322 322 322 321 320
287 286 285 285 285 284 284 283 282 282 282 282 282 281 281 281 281 281 280 280 280 280 280 280 279 279 279 279 279 279 280 280 280 280 280 280 280 280 280 280 280 281 281 282 282 282 282 282 283 283 283 283 283 283 283 284 284 284 285 288 290 291 291 295 298 301 305 308 310 313 315 317 318 319 320 322 322 323 323 322 322 322 322 321 320
286 286 285 285 285 284 284 282 282 281 281 281 281 281 281 280 280 280 280 279 279 279 279 279 279 279 279 279 279 279 279 279 279 280 280 280 280 280 280 280 280 280 281 281 281 282 282 282 282 282 283 283 283 283 283 283 284 283 284 288 291 291 291 293 295 299 303 306 308 310 311 314 315 317 318 320 320 321 322 321 321 322 321 321 320
286 286 285 285 285 284 283 282 281 281 281 280 280 280 280 280 280 279 279 279 279 278 278 278 278 278 278 278 278 278 278 279 279 279 279 279 279 279 279 279 279 280 280 280 281 281 282 282 282 282 282 282 282 283 283 283 283 283 284 288 290 290 291 291 294 297 300 303 306 308 309 311 313 314 316 318 319 320 321 321 321 321 321 320 320
286 286 285 285 284 283 282 282 281 281 280 280 280 280 280 279 279 279 279 278 278 278 278 278 278 277 278 278 278 278 278 278 278 279 279 279 279 279 279 279 279 279 280 280 280 281 281 281 282 282 282 282 282 282 282 283 283 283 283 285 286 287 289 289 291 294 298 301 303 306 308 310 311 312 314 316 318 319 321 321 320 321 321 320 320
286 285 285 284 283 282 281 281 281 281 280 280 280 279 279 279 279 278 278 278 277 277 277 277 277 277 277 277 277 277 278 278 278 278 278 279 279 278 278 278 279 279 280 280 281 281 281 282 282 282 283 283 283 282 282 282 282 283 283 284 284 285 286 286 287 291 295 299 301 304 306 308 310 311 312 314 316 319 320 320 319 320 321 321 320
285 285 284 283 282 281 281 281 280 280 280 279 279 279 279 278 278 278 278 277 277 277 277 277 277 277 276 277 277 277 277 278 278 278 278 278 278 278 278 278 278 278 279 280 281 281 281 282 282 283 283 283 282 281 281 281 282 282 283 283 284 284 284 284 285 287 292 296 300 302 305 307 308 310 312 313 314 317 318 318 318 319 320 320 320
285 284 283 282 281 281 281 280 280 280 279 279 278 278 278 278 277 277 277 277 277 276 276 276 276 276 276 276 276 277 277 277 277 278 278 278 278 278 278 277 278 278 279 280 281 281 281 282 282 283 283 282 281 280 280 281 282 282 283 283 283 284 284 285 285 286 288 293 299 302 304 307 308 309 311 312 312 314 316 317 318 319 319 319 320
283 283 282 282 281 281 280 280 279 279 279 278 278 278 277 277 277 277 277 277 276 276 276 275 275 275 275 275 275 275 275 275 276 276 277 277 277 277 277 277 278 279 279 279 279 279 280 280 280 280 280 279 279 279 280 281 281 282 282 283 283 283 284 284 285 285 286 291 297 300 303 306 307 308 309 310 311 312 315 317 318 319 318 319 319
282 282 281 281 280 280 280 279 279 278 278 278 277 277 277 276 276 276 276 276 276 275 275 274 274 274 274 274 274 274 273 273 274 275 276 276 276 277 278 278 278 278 278 278 278 278 278 278 278 278 278 278 279 279 280 281 281 282 282 283 283 283 284 284 285 285 286 289 294 299 302 304 305 306 307 308 309 311 314 316 317 318 318 318 318
281 281 280 280 280 279 279 278 278 278 277 277 277 276 276 276 276 276 276 276 274 274 274 273 273 273 273 272 272 272 273 273 273 274 274 275 276 276 277 277 277 276 276 277 277 277 278 278 278 278 278 279 279 280 280 280 281 281 282 282 282 283 284 284 284 285 286 287 291 296 300 302 302 304 306 307 308 310 312 314 316 316 317 317 316
280 280 280 279 279 278 278 278 277 277 277 277 276 276 276 276 276 276 276 276 274 273 272 272 272 272 272 272 272 273 273 273 273 274 274 275 275 276 276 276 276 276 276 277 277 278 278 278 279 279 280 280 280 279 280 280 281 281 282 282 283 283 283 284 284 286 286 287 289 293 298 300 301 302 304 305 307 308 310 312 314 314 314 315 316
279 279 279 278 278 278 277 277 277 277 276 276 276 276 276 276 275 274 274 275 274 272 271 271 272 272 272 272 273 273 273 273 274 274 275 275 275 275 276 276 276 277 277 277 278 278 278 279 279 279 280 279 279 279 279 279 280 281 281 281 282 282 283 283 284 285 286 287 289 292 296 299 300 301 302 303 305 307 308 310 311 312 312 313 314
279 279 278 278 278 277 277 277 276 276 276 276 275 275 275 275 275 275 274 273 273 272 272 271 271 272 272 272 272 272 272 273 273 273 274 274 274 275 275 276 276 276 277 277 277 278 278 278 279 279 278 278 278 279 279 280 280 281 281 281 282 282 283 283 284 285 286 287 289 291 294 298 299 299 300 302 304 305 307 308 309 309 310 311 311
278 278 278 277 277 277 276 276 276 276 275 275 275 274 273 273 274 275 275 273 272 271 271 271 271 271 271 271 271 271 271 272 272 273 273 273 274 274 274 274 274 275 275 276 277 277 277 277 278 278 278 278 278 278 279 279 280 280 281 281 281 281 282 282 283 284 286 287 289 291 294 296 298 298 299 301 302 304 305 306 307 307 307 307 308
278 277 277 277 276 276 276 276 275 275 275 274 274 273 273 272 271 272 274 274 274 273 272 271 271 270 270 269 269 270 270 271 271 271 271 271 271 272 272 272 273 273 274 274 275 275 276 276 276 277 277 277 278 278 279 279 279 280 281 281 281 281 282 282 283 284 285 286 288 290 292 295 296 297 298 300 301 303 304 305 305 306 305 305 306
277 277 277 276 276 275 275 275 275 274 274 273 273 272 272 271 270 270 271 272 273 274 273 272 270 269 268 268 268 268 268 269 269 269 269 270 270 270 271 271 272 272 273 273 274 274 275 275 276 276 277 277 278 278 278 278 279 279 280 280 281 281 282 282 282 283 284 285 287 289 292 293 295 296 297 299 300 301 302 303 304 304 304 304 305
277 276 276 276 275 275 275 274 274 274 273 272 272 272 272 271 270 269 269 268 269 271 272 272 271 269 267 267 267 267 267 267 267 268 268 269 269 269 270 270 271 271 272 272 273 274 274 275 275 276 276 277 278 278 279 279 280 280 280 281 281 281 282 282 282 283 284 285 286 288 291 293 294 295 297 298 300 300 300 301 302 302 302 303 304
276 276 276 275 275 274 274 274 273 273 272 272 271 271 271 270 269 269 268 267 267 267 269 271 271 269 267 265 265 266 265 266 266 266 267 267 268 268 269 269 269 270 271 271 272 273 274 275 275 275 275 276 276 277 278 279 279 280 281 282 282 283 283 283 284 285 285 285 285 287 290 293 294 295 296 297 299 300 300 300 301 300 300 301 302
276 275 275 275 274 274 274 273 273 272 272 271 271 270 270 270 269 268 267 267 266 266 266 268 268 267 266 265 265 265 265 264 264 265 265 266 266 267 267 267 268 268 269 269 270 271 272 273 274 275 275 276 277 277 277 278 278 279 280 281 282 283 283 283 284 284 285 286 286 287 290 292 293 295 296 297 298 299 300 300 300 300 299 300 301
275 275 274 274 274 273 273 273 272 272 271 271 270 270 269 269 268 268 267 266 265 265 265 265 265 265 264 264 264 263 263 263 263 264 264 264 265 265 266 266 267 267 268 268 269 270 271 271 272 273 274 275 276 277 278 279 279 280 280 280 281 282 282 283 283 283 284 285 286 287 290 292 293 294 295 296 297 298 299 300 300 300 300 300 300
275 274 274 274 273 273 272 272 272 271 271 270 270 269 268 268 268 267 266 266 265 264 264 264 264 263 263 263 263 262 262 263 263 263 264 264 264 265 265 266 266 267 268 269 270 270 271 272 273 273 274 275 276 277 278 279 279 280 280 280 281 282 282 283 283 283 284 285 285 287 289 292 293 294 295 296 296 297 298 299 299 300 300 300 300
274 274 274 273 272 272 271 271 271 271 270 270 269 268 268 267 267 266 266 265 264 263 263 263 262 263 263 262 262 262 262 263 263 263 263 264 264 264 265 265 266 266 267 268 269 270 271 272 272 273 274 274 275 276 277 278 279 280 281 281 282 282 283 283 283 284 285 286 286 287 289 291 293 294 295 295 296 297 298 298 299 299 299 299 299
274 274 273 272 272 271 271 271 270 270 270 269 268 268 268 267 267 266 265 264 263 263 262 262 262 262 262 262 262 262 262 262 263 263 263 263 264 264 264 265 265 266 266 267 268 268 269 270 270 271 272 273 274 275 276 277 278 279 280 281 282 283 283 284 284 284 285 285 286 287 289 291 292 293 294 295 295 296 297 298 298 298 298 298 298
273 273 272 272 271 271 270 270 270 270 269 269 268 268 268 267 266 265 264 263 263 262 262 262 261 261 261 261 261 262 262 262 262 263 263 263 263 264 264 264 265 265 265 266 267 267 268 268 269 270 271 272 273 274 275 276 277 278 279 280 281 282 283 284 285 285 285 285 286 288 290 291 292 293 294 294 295 295 296 296 297 297 297 297 297
273 272 272 271 271 270 270 270 269 269 268 268 268 268 267 266 265 264 264 263 263 262 261 261 261 261 261 261 261 261 262 262 262 262 263 263 263 263 264 264 265 265 265 266 266 267 267 268 269 270 271 271 272 273 274 275 276 277 278 279 280 282 283 284 285 286 287 286 287 288 290 291 292 293 294 294 294 295 295 295 296 296 296 295 295
272 271 271 271 270 270 270 270 269 268 268 268 268 268 267 266 265 265 264 263 262 261 261 261 261 260 260 261 261 261 261 261 261 262 262 262 263 263 264 264 265 265 266 266 266 267 267 268 269 270 270 271 271 272 273 274 275 277 278 279 280 281 283 284 285 286 287 287 288 289 290 291 292 293 293 294 294 294 294 295 295 295 295 295 294
271 271 270 270 270 270 270 269 268 268 268 267 267 267 267 266 265 265 263 262 261 261 261 260 260 260 260 260 260 260 260 260 261 261 262 262 263 263 263 264 265 265 266 266 267 267 267 268 269 269 270 270 271 273 274 275 276 277 278 279 280 281 283 284 285 286 287 287 288 289 291 291 292 293 293 293 293 294 294 294 295 295 295 294 293
271 270 270 270 270 269 269 269 268 268 268 267 267 267 266 266 265 264 263 262 261 260 260 260 260 260 260 260 260 260 260 260 260 261 261 262 262 263 263 263 264 264 265 265 266 266 267 267 268 269 269 271 272 274 275 276 277 277 278 279 280 281 283 284 285 287 288 287 288 289 290 291 292 293 293 293 293 293 293 294 294 295 294 293 293
270 270 270 269 269 269 268 268 268 268 268 267 267 266 266 266 265 264 263 262 261 260 260 260 260 260 260 260 259 260 260 260 261 261 261 262 262 263 263 264 264 264 265 265 265 266 266 267 267 268 269 270 271 272 273 274 275 276 277 279 280 281 283 284 285 287 288 288 288 289 290 291 292 292 293 292 292 293 293 293 293 294 294 293 292
270 270 270 269 269 268 268 268 268 268 267 267 267 266 266 265 265 264 263 262 261 261 260 260 261 260 260 260 260 260 260 261 261 262 262 262 263 264 264 264 265 265 266 266 266 267 267 267 268 269 270 270 271 272 273 274 275 276 278 279 280 282 283 285 286 287 288 289 289 290 291 291 292 292 292 292 292 292 292 292 292 292 292 292 291
270 269 269 269 269 268 267 267 267 267 267 266 266 266 266 265 265 264 263 262 262 262 262 261 261 260 260 260 260 261 261 262 262 262 263 263 264 265 265 265 266 266 266 267 267 268 268 269 269 270 271 272 273 273 274 276 277 278 279 281 282 284 285 286 287 288 288 289 290 290 291 291 292 292 292 292 292 292 292 292 292 291 291 290 290
269 269 269 269 268 268 267 267 267 267 266 266 266 266 266 265 265 264 263 262 262 262 262 262 261 261 261 261 261 261 262 262 263 263 264 264 265 265 265 266 266 267 267 267 268 269 269 269 270 271 272 273 273 275 276 277 279 280 281 283 284 285 286 287 288 288 289 289 290 290 291 291 291 292 292 291 291 291 291 291 291 290 290 289 288
269 269 269 268 268 267 267 267 267 267 267 266 266 266 266 265 265 264 264 263 263 263 263 262 262 261 261 262 262 262 262 263 263 264 264 265 265 265 266 266 266 267 267 268 268 269 269 270 271 272 273 274 275 276 277 279 280 281 283 284 285 286 287 288 288 289 289 289 290 290 291 291 291 291 291 291 290 290 290 290 290 289 289 288 288
Wind_Speed
23 23 23 24 24 24 25 25 25 26 26 27 28 29 30 30 30 30 30 31 31 32 32 32 32 32 32 32 32 31 30 31 31 32 32 32 31 31 31 31 31 31 32 33 31 27 25 25 26 29 30 32 34 34 34 36 38 40 39 37 36 35 34 34 37 40 40 41 41 41 40 39 36 33 29 24 21 20 21 23 24 26 27 28 28
22 22 22 22 24 24 25 26 26 26 27 27 28 30 31 32 32 33 33 33 33 33 34 34 34 34 34 34 33 33 32 31 31 31 32 32 32 32 32 32 32 32 32 34 36 35 33 30 26 25 26 31 34 34 34 34 35 38 38 37 38 37 35 36 38 39 39 38 37 39 40 41 40 38 35 31 26 24 23 24 25 27 28 28 29
22 22 23 23 23 24 24 26 27 28 28 29 29 30 31 32 33 34 35 35 35 35 35 35 36 36 36 35 35 35 34 33 32 32 32 32 32 32 32 32 33 33 32 33 35 36 36 35 33 28 25 27 32 35 35 35 36 37 38 38 38 36 35 36 38 40 41 39 37 37 38 39 41 41 38 35 32 29 27 26 26 27 28 29 29
22 23 23 23 24 24 25 26 27 28 29 30 30 31 31 32 33 34 35 36 37 37 38 38 38 38 37 37 37 37 37 36 35 34 33 33 34 33 33 33 33 34 34 34 34 35 36 36 36 34 30 27 28 32 36 38 38 38 38 38 39 38 37 37 38 39 41 42 40 38 37 37 38 39 39 39 36 32 29 28 28 28 28 29 29
22 22 23 23 24 24 25 26 27 28 28 30 31 32 32 33 33 34 36 37 38 39 39 40 40 41 40 40 40 39 39 39 38 36 35 34 35 35 35 35 34 34 34 34 34 35 35 36 37 37 36 35 32 30 32 36 40 41 41 40 38 39 39 38 39 39 41 42 41 39 39 39 38 37 38 39 38 36 31 29 29 30 29 29 30
25 26 26 26 26 26 27 27 28 28 29 30 31 32 34 35 35 36 36 37 39 39 41 41 42 43 42 42 42 41 41 41 40 39 38 37 36 37 37 37 37 36 35 35 35 35 35 36 37 37 38 39 39 36 32 32 36 39 43 44 42 40 40 41 40 40 42 43 41 40 40 41 40 39 38 38 38 37 34 31 30 31 31 31 32
25 26 26 27 27 28 28 29 29 30 31 32 32 33 34 36 37 38 39 39 40 40 41 42 43 44 44 44 44 43 43 42 41 41 40 40 39 39 39 39 39 39 38 38 37 37 36 36 36 37 37 38 40 41 39 36 34 35 39 44 46 43 42 42 42 42 43 42 42 42 42 42 41 41 40 38 36 37 35 33 32 33 34 35 34
23 24 24 23 23 24 25 26 27 29 30 32 33 35 35 36 37 38 40 41 42 42 42 43 44 44 45 45 45 45 45 44 43 42 42 42 41 41 42 42 42 42 42 41 40 40 39 38 37 37 37 38 39 40 42 41 40 38 36 37 42 46 46 43 43 44 44 43 44 44 45 44 43 43 42 40 38 38 38 36 35 36 36 37 36
24 25 25 24 23 22 22 23 23 25 26 28 29 32 34 36 37 39 40 42 43 44 44 45 45 46 46 47 48 47 47 47 45 44 43 43 42 43 43 44 44 45 45 44 44 43 42 41 41 39 38 38 38 39 41 42 42 43 41 36 35 42 47 47 45 45 45 45 46 46 46 46 45 44 45 44 43 42 40 38 38 38 37 37 38
24 26 27 27 25 24 23 23 24 24 25 26 27 29 31 33 35 37 39 41 43 45 46 47 48 48 49 49 49 50 50 50 48 46 45 43 43 44 44 45 45 46 47 47 47 46 45 44 44 43 41 40 40 39 40 42 43 45 46 43 38 37 40 43 46 48 47 46 47 47 46 46 46 46 47 48 46 43 42 41 39 39 38 38 40
25 26 29 29 28 26 26 26 26 27 28 29 30 32 33 34 35 37 38 39 41 43 46 48 49 50 51 51 51 52 52 52 52 50 48 46 44 44 45 46 46 46 46 47 48 48 48 47 47 46 45 43 42 41 41 41 42 44 47 49 48 42 37 37 42 48 50 48 47 47 46 47 48 47 48 49 47 45 45 43 41 39 40 41 43
26 27 29 30 29 28 27 28 28 29 30 31 32 34 36 38 39 40 41 41 41 42 44 46 48 50 51 53 53 54 53 53 53 53 52 50 47 46 46 47 47 47 47 47 48 49 49 49 49 48 47 45 44 43 43 42 41 42 44 48 52 51 46 42 41 43 46 48 47 47 49 50 50 49 48 49 48 47 46 45 43 40 41 44 46
28 30 31 31 30 29 29 29 30 30 31 32 34 35 37 39 41 43 45 46 46 46 46 46 47 48 50 52 54 55 55 55 54 54 54 53 51 49 49 48 48 48 48 48 48 48 48 49 50 49 48 47 45 44 44 44 43 42 43 45 48 51 53 53 50 46 43 44 46 49 52 52 51 50 49 48 48 48 48 47 45 42 42 44 46
30 32 32 32 32 30 30 30 32 33 34 35 36 37 39 41 43 44 46 48 49 50 51 50 50 50 50 51 53 55 56 56 56 56 55 55 54 52 51 51 50 50 49 49 49 48 48 47 49 50 49 47 46 45 44 44 44 44 44 44 45 48 51 55 58 55 49 46 46 51 55 56 53 49 47 47 48 49 50 48 45 43 42 40 41
33 34 34 34 33 31 31 32 33 34 36 37 38 39 41 43 44 46 47 49 50 52 53 53 54 53 52 52 53 55 56 57 57 57 57 56 55 54 54 53 53 52 51 50 49 49 48 47 47 48 49 48 46 44 43 43 43 44 44 45 45 45 46 50 55 58 55 51 49 51 55 56 56 52 48 48 49 50 49 45 41 38 38 38 40
36 36 36 35 34 32 32 33 35 36 37 38 40 41 43 44 46 48 49 50 51 51 52 53 54 54 54 53 53 55 56 57 57 58 57 57 55 54 55 55 55 55 54 52 50 49 49 48 47 47 47 48 46 44 42 42 43 44 44 45 45 45 45 46 48 52 54 53 51 51 52 52 52 53 52 51 51 49 45 43 41 38 40 43 44
38 37 37 36 34 33 33 35 37 37 38 39 41 43 45 47 48 49 50 51 51 51 52 52 52 53 54 54 54 55 56 56 56 57 57 56 55 55 55 56 57 57 56 54 52 50 49 48 47 46 46 46 46 44 42 42 43 43 43 44 45 46 47 45 44 45 49 51 51 50 49 47 46 49 52 52 51 49 47 46 44 43 44 45 46
38 37 37 36 34 34 35 37 38 39 39 41 43 45 47 49 50 51 50 51 52 53 53 53 53 53 53 54 55 56 57 57 56 57 57 56 55 55 55 55 56 57 57 56 54 52 51 49 47 46 46 45 44 44 42 42 43 44 43 41 42 45 47 46 42 40 41 46 50 51 50 47 43 45 50 52 53 53 51 47 45 44 46 48 48
38 37 37 36 35 36 37 38 39 40 41 43 45 47 50 51 52 52 51 52 53 53 53 53 54 54 54 55 55 56 58 59 58 57 58 57 56 55 54 54 55 55 56 56 56 54 52 51 49 47 46 45 43 43 43 41 42 43 42 39 39 44 46 43 39 38 37 40 43 46 48 48 45 45 47 51 55 57 51 45 44 46 48 49 49
37 36 37 37 37 37 38 39 41 42 43 45 47 50 51 53 53 53 53 52 53 53 53 53 54 55 55 56 56 57 58 59 59 58 58 58 57 55 54 53 53 54 54 55 56 56 54 52 51 48 47 45 44 43 43 42 42 43 42 39 38 41 43 40 39 39 40 40 39 39 42 45 46 46 46 48 53 56 51 44 45 49 51 51 51
36 36 37 37 37 38 39 41 42 44 45 48 50 51 53 53 53 54 54 54 54 54 54 54 55 56 56 56 57 57 58 59 59 59 58 58 57 55 54 53 52 53 54 54 54 55 55 54 52 50 49 47 45 44 44 43 43 43 43 41 41 42 43 42 42 43 43 43 42 40 40 42 44 45 47 47 50 55 55 50 48 51 55 55 52
36 36 36 37 38 39 41 43 44 46 48 50 51 52 53 53 54 55 55 54 54 54 54 54 55 56 56 57 57 58 58 59 59 58 58 57 57 55 54 53 52 51 52 53 54 54 55 54 53 50 49 48 47 46 46 45 45 46 46 46 46 47 46 45 45 45 45 45 44 43 43 43 43 43 46 49 49 52 54 51 49 53 58 58 54
36 36 37 38 40 41 43 45 46 48 50 51 51 52 53 54 54 55 54 54 53 54 54 55 55 56 58 58 59 59 59 59 59 58 57 56 56 55 54 53 52 50 50 51 53 53 53 53 51 49 48 48 49 48 48 48 48 48 49 49 49 48 48 47 47 46 46 45 44 44 45 45 46 46 46 48 49 50 50 48 47 53 59 60 55
36 37 38 40 42 44 46 47 49 50 51 51 51 52 53 54 54 54 53 52 53 53 55 56 56 57 59 60 60 61 60 60 59 58 58 57 56 56 54 53 52 50 49 50 51 51 51 51 50 49 48 49 51 52 52 52 51 50 50 50 50 50 49 49 48 47 47 46 44 45 46 46 49 50 49 49 49 49 50 50 49 52 58 60 56
37 39 40 42 45 47 49 50 52 51 51 50 51 52 53 53 53 52 52 52 53 54 56 57 57 58 59 61 62 62 61 60 60 58 57 57 56 56 55 53 51 48 46 46 46 48 49 49 50 52 53 56 58 57 55 53 52 51 52 51 50 50 50 50 48 48 48 48 45 45 47 47 48 51 52 50 48 47 49 52 51 51 55 58 57
38 40 43 46 47 49 51 52 52 51 50 51 51 52 52 51 51 52 53 54 55 56 56 57 58 59 60 61 62 62 60 59 59 58 57 56 56 54 50 46 41 39 40 44 48 51 53 55 56 58 60 60 57 54 52 52 52 53 53 52 51 51 50 50 48 47 48 48 47 46 48 47 46 48 50 48 47 47 49 51 52 52 54 57 58
41 44 46 47 49 50 51 51 51 51 51 51 52 51 51 50 51 53 55 56 56 56 56 56 57 58 60 60 59 59 58 57 57 56 54 52 50 47 43 41 41 45 51 55 57 57 58 58 58 57 56 54 51 49 50 51 52 53 54 53 52 51 50 49 48 47 46 47 47 46 47 46 43 43 45 47 47 49 50 52 53 53 55 57 58
43 45 46 47 49 49 49 49 50 51 51 51 51 51 51 52 53 55 56 56 55 54 54 55 56 56 55 56 56 55 55 56 56 54 51 49 49 49 50 52 55 57 57 56 54 53 53 53 52 51 48 48 49 51 52 51 51 52 53 53 52 51 50 48 47 46 46 46 46 46 47 46 43 41 43 46 47 48 51 53 53 54 56 59 59
43 45 46 47 48 48 48 49 50 51 51 50 51 51 52 53 54 56 58 57 54 51 50 51 52 53 52 53 53 52 55 57 57 54 52 52 53 54 56 56 56 55 52 50 49 50 51 51 50 49 47 48 51 53 53 51 51 51 52 51 51 49 48 47 45 44 44 43 44 45 47 47 45 43 42 44 46 47 50 52 53 54 58 60 61
44 46 46 46 47 47 48 49 49 49 49 50 52 53 55 55 54 54 56 56 54 50 47 46 47 48 49 51 52 52 54 57 56 53 52 53 53 53 53 53 51 51 50 49 49 50 51 51 52 51 49 51 54 54 53 52 52 53 53 52 51 49 48 46 44 44 43 41 41 43 44 45 45 43 43 44 45 46 49 51 53 56 59 61 62
44 45 45 45 46 47 48 48 48 48 49 51 53 54 56 57 57 55 53 53 53 52 50 47 46 45 46 49 51 51 52 52 51 50 50 50 50 49 49 49 48 47 47 47 48 50 50 51 52 52 51 51 52 52 51 51 52 52 52 51 49 47 46 45 44 43 41 39 39 40 41 43 43 43 43 45 45 46 49 51 53 56 59 61 62
43 44 45 46 46 46 46 46 47 48 50 51 52 53 53 55 58 58 56 53 52 53 53 53 51 49 47 46 47 48 48 48 47 47 46 46 47 48 48 48 48 47 47 46 46 48 49 48 49 51 52 52 52 53 53 53 53 52 51 51 51 49 47 47 45 42 39 38 37 38 40 41 41 42 43 44 45 47 49 51 52 55 56 57 59
42 44 45 45 45 45 45 45 47 49 50 51 51 51 51 51 54 57 59 59 57 56 55 54 53 52 48 43 41 42 45 46 46 47 47 48 50 51 51 50 49 48 47 46 47 48 49 50 51 52 53 54 55 55 54 54 54 53 51 51 52 51 48 46 43 41 40 38 37 38 39 40 40 40 42 44 45 47 48 49 51 54 54 54 55
42 44 44 43 43 43 44 45 47 49 49 49 49 49 49 50 51 53 57 59 62 63 62 58 55 52 50 47 43 42 44 46 47 48 49 49 49 49 48 48 48 47 46 46 47 48 47 47 48 50 52 55 56 56 56 56 55 55 53 52 52 51 50 48 45 43 42 40 39 39 40 39 39 39 42 44 44 45 47 48 51 53 54 55 56
42 42 42 41 41 42 44 45 46 47 48 48 47 47 49 50 50 51 52 54 58 62 65 65 61 55 53 53 50 46 44 45 47 47 47 47 47 45 44 46 46 45 43 42 43 44 44 45 47 49 51 53 54 54 53 52 51 51 51 51 52 51 50 48 45 42 41 40 40 39 40 40 39 39 42 44 45 45 46 48 51 53 53 55 56
40 40 40 40 40 42 44 45 45 45 46 47 47 47 48 49 50 51 52 53 54 58 63 66 66 62 57 54 52 51 48 45 45 46 46 46 44 43 43 45 45 43 41 40 39 39 40 41 43 46 49 52 54 54 53 51 49 48 47 47 47 47 46 43 41 40 39 40 40 39 40 40 40 39 42 44 46 46 46 47 50 51 51 52 54
38 38 39 40 41 43 44 45 44 44 45 46 46 47 48 48 49 50 52 53 54 57 60 64 66 66 63 57 54 54 53 48 45 45 45 43 41 41 42 44 45 45 45 44 42 41 41 42 43 43 45 46 48 49 50 49 48 48 48 47 46 47 46 45 43 42 41 41 41 39 40 41 40 40 42 45 46 46 46 47 48 50 49 48 49
36 37 38 40 41 42 43 44 44 44 44 45 45 46 47 48 49 50 52 53 54 56 59 62 63 65 66 62 56 54 54 52 48 46 45 42 40 39 40 41 41 42 43 42 40 40 42 44 45 45 46 47 47 47 46 45 43 44 46 47 46 46 46 46 45 44 43 43 42 41 40 41 41 41 42 45 47 48 47 47 48 49 49 49 50
35 37 38 39 40 41 41 42 43 44 44 45 45 45 46 48 49 50 52 54 55 56 57 60 61 62 63 61 57 54 53 52 49 47 45 43 40 39 39 38 38 39 39 39 38 38 39 40 41 41 42 43 44 44 44 44 43 43 45 46 46 46 45 45 45 44 43 43 43 42 42 42 42 42 43 46 48 49 48 48 48 49 51 52 52
36 37 38 39 39 39 40 41 42 43 44 44 44 45 46 47 48 50 52 53 55 56 56 57 60 61 60 58 54 50 49 49 49 48 47 45 44 43 42 41 42 41 41 41 40 39 40 41 41 41 42 43 43 43 43 42 41 41 42 43 44 44 45 45 44 43 43 42 41 41 42 43 43 43 44 47 48 49 49 48 48 50 52 53 53
36 37 38 38 38 39 39 40 41 41 42 43 44 44 46 47 48 49 51 52 54 56 57 57 59 59 57 54 49 45 45 48 49 49 48 47 46 46 44 43 43 43 43 43 43 42 42 43 44 45 45 45 45 44 43 42 42 41 41 42 43 44 45 45 44 43 43 43 42 40 41 43 44 44 45 47 49 49 50 49 49 50 51 52 52
35 37 37 37 37 38 39 40 41 41 41 43 44 44 45 47 47 48 50 51 53 55 56 57 56 55 53 50 46 43 43 45 47 47 48 48 47 47 46 45 45 44 44 44 44 44 44 44 44 44 44 43 43 42 42 42 44 43 42 42 42 42 43 44 45 44 43 41 41 41 41 42 44 45 46 47 48 48 49 49 49 49 49 50 51
35 35 35 36 36 37 38 39 40 41 41 42 44 44 45 46 47 48 49 51 52 53 53 53 53 52 50 46 43 41 42 44 45 46 46 47 47 46 46 45 44 44 44 44 43 43 43 43 44 44 44 45 45 45 43 42 42 42 43 43 43 43 42 42 43 44 42 39 38 40 42 42 44 45 46 46 47 48 48 48 48 48 48 49 50
33 34 34 34 35 36 37 38 38 40 41 42 43 44 45 45 46 48 48 50 50 50 49 49 49 49 49 46 44 44 44 45 45 44 44 44 45 45 45 45 44 44 44 44 43 42 42 42 43 44 45 46 47 46 45 43 42 43 44 44 43 43 43 41 41 42 42 39 37 39 42 42 43 45 46 46 47 48 48 48 48 48 48 49 50
32 32 33 34 35 35 36 37 37 39 41 42 43 44 44 45 46 47 48 48 48 47 47 47 46 47 47 47 46 46 45 45 44 43 43 43 44 44 44 44 44 43 43 43 42 42 42 43 44 45 45 45 44 42 40 40 40 41 42 41 41 42 42 40 39 41 42 39 36 38 41 42 43 45 46 47 48 48 48 49 50 49 49 50 51
30 31 32 34 34 34 35 36 37 39 41 42 43 44 45 46 47 47 47 47 47 46 46 46 46 46 47 47 46 46 45 44 44 43 43 43 43 43 43 43 43 43 44 43 43 43 43 43 44 45 45 44 43 40 39 38 38 39 40 41 42 43 42 38 38 40 41 37 35 38 42 43 44 46 46 47 48 49 49 49 50 49 50 50 51
29 30 31 32 33 34 35 36 37 39 40 41 42 44 45 46 47 47 47 47 46 46 46 46 46 46 46 46 46 46 45 44 44 44 43 43 42 42 42 42 42 42 42 42 41 41 42 43 44 46 47 48 47 47 46 45 44 44 44 45 45 44 41 36 35 38 39 36 35 39 43 44 44 46 46 47 48 48 48 49 49 49 50 50 51
28 29 30 31 32 33 34 35 36 38 39 40 41 43 44 46 47 47 47 47 47 46 46 46 46 46 46 45 45 45 45 45 44 43 42 42 41 40 40 39 39 39 39 38 37 37 37 39 41 42 44 45 46 46 47 46 45 44 44 43 42 40 36 33 32 34 36 36 37 41 44 44 45 46 46 47 48 49 49 49 49 49 50 51 52
27 28 29 30 31 32 33 34 36 37 38 39 41 42 44 45 46 47 47 47 47 46 46 45 45 45 45 45 45 44 44 43 42 41 40 40 39 39 38 37 36 36 36 35 34 32 32 32 33 34 35 37 38 40 41 41 40 40 40 39 37 34 32 30 29 32 35 37 39 42 44 44 45 46 46 47 48 48 49 49 49 49 50 51 51
27 28 28 29 30 31 32 33 35 36 37 38 39 41 43 44 45 46 47 47 46 46 45 44 44 44 44 44 43 43 42 41 40 39 37 36 36 36 35 35 35 35 34 33 32 30 29 29 29 29 30 31 32 33 33 33 34 35 35 34 32 30 28 28 28 30 34 38 41 43 43 44 45 46 45 46 47 47 48 49 49 50 51 51 51
27 28 28 29 29 30 31 33 34 35 36 37 38 40 42 43 44 46 46 46 45 45 45 44 44 43 43 42 41 40 39 38 37 36 34 34 34 34 34 34 35 34 34 33 31 29 28 27 26 25 26 26 27 27 27 29 31 32 32 31 29 28 27 26 26 28 32 37 41 43 43 43 45 45 45 45 46 47 47 48 49 50 51 51 51
Wind_Direction
9 9 9 7 6 4 3 2 360 358 357 356 355 355 354 353 352 350 349 347 345 344 341 339 337 334 332 331 329 327 324 321 319 318 317 315 314 312 308 303 295 287 280 276 276 281 291 299 300 298 296 291 284 279 275 270 267 263 260 257 257 259 259 255 256 262 265 266 267 268 269 269 268 264 260 255 250 251 254 255 255 255 255 256 256
4 4 4 3 2 1 359 358 357 355 353 352 351 351 350 350 349 348 347 347 346 344 343 341 339 337 335 332 331 329 326 323 320 319 318 316 314 312 311 309 304 296 287 280 277 277 279 282 288 295 298 295 289 282 277 275 272 267 265 262 257 257 260 259 257 260 266 271 272 272 272 272 270 266 263 258 252 251 254 255 256 257 257 258 258
359 358 359 359 358 357 355 354 353 352 351 351 349 348 347 347 346 345 345 344 344 343 342 341 339 338 336 334 332 331 329 326 323 321 320 318 316 313 312 311 310 306 298 290 285 282 279 276 276 280 289 295 292 285 279 276 273 270 267 265 262 262 264 263 259 257 262 270 275 275 274 273 272 270 269 265 259 255 254 253 254 255 256 257 258
353 351 351 353 353 353 352 351 350 349 349 349 349 348 346 345 343 343 342 342 342 342 341 340 338 337 336 335 333 332 331 329 326 324 321 320 318 315 312 310 310 308 305 300 296 292 287 280 275 272 275 283 288 288 284 280 275 271 269 267 266 266 266 264 262 259 260 266 273 276 276 275 274 273 272 270 266 260 255 252 251 251 252 254 255
349 348 347 348 348 348 348 348 348 348 347 347 346 346 346 344 343 341 340 339 339 338 338 338 337 336 335 334 333 332 331 329 327 326 323 320 318 315 313 310 308 307 305 303 301 298 295 288 281 276 273 273 275 280 285 284 279 274 271 268 266 266 265 264 264 262 260 262 269 275 276 275 275 273 270 267 266 263 256 251 250 248 248 249 250
345 345 344 345 345 345 345 345 345 345 345 344 343 343 343 342 342 341 339 338 337 336 335 335 334 334 333 332 331 330 329 328 327 326 324 322 319 316 313 311 308 306 304 303 302 300 298 294 290 285 280 275 272 271 277 283 283 277 273 269 266 266 266 264 264 263 260 259 264 271 272 272 272 272 268 263 263 263 258 252 249 247 245 244 245
336 337 336 336 337 337 337 339 340 340 340 340 340 339 339 339 339 339 338 337 336 335 334 332 331 330 330 329 328 327 327 325 325 325 324 322 320 317 314 312 309 306 303 302 301 299 298 296 294 291 287 282 277 272 270 272 277 278 277 274 268 264 263 264 263 261 260 259 260 263 267 268 268 269 268 264 262 261 258 252 247 244 242 241 241
330 332 330 329 327 326 328 330 331 332 333 334 335 336 337 337 336 336 336 336 335 334 333 330 328 327 327 326 325 324 323 322 322 323 322 321 320 318 316 313 311 308 305 302 300 299 298 296 294 293 290 287 283 278 274 272 273 273 274 277 273 264 259 259 262 261 258 260 260 259 261 263 264 265 265 260 255 253 252 250 246 243 241 240 239
326 330 329 328 326 325 326 326 326 327 327 329 331 332 333 334 334 334 334 334 333 332 331 329 327 326 324 323 322 321 320 319 319 319 319 319 318 317 315 313 312 310 307 304 300 298 298 297 295 292 291 288 285 282 278 276 275 273 271 274 277 270 259 255 258 260 257 257 258 257 256 255 257 260 259 255 253 252 252 251 248 245 243 241 240
321 326 328 327 327 327 328 328 328 328 328 328 329 330 331 332 332 333 333 332 331 331 329 328 326 325 322 321 319 318 317 316 315 315 315 315 315 314 313 311 311 310 308 306 303 300 298 297 295 293 291 288 286 285 282 276 274 273 270 269 273 274 268 259 256 254 253 254 255 254 251 250 253 256 256 257 259 256 252 250 249 245 242 240 239
318 322 324 325 325 327 328 328 328 328 328 328 327 328 328 329 330 330 330 329 328 328 327 326 325 323 321 319 317 315 314 312 312 312 311 311 310 310 310 309 308 307 307 306 305 303 300 297 296 295 293 290 288 287 285 281 276 273 271 268 266 267 270 268 262 254 247 248 252 252 250 251 254 255 255 257 257 253 251 250 248 245 240 236 235
314 317 320 321 322 325 326 326 325 325 325 325 325 325 325 325 326 327 326 325 324 322 321 321 321 320 319 316 314 312 311 309 308 308 308 308 308 307 307 306 306 305 304 304 304 303 302 300 298 296 294 293 292 290 287 285 283 279 274 270 266 263 260 261 264 260 250 246 248 250 250 253 255 254 253 255 254 251 249 247 245 245 243 238 235
310 313 316 318 319 322 325 324 323 323 323 323 322 321 321 321 322 323 322 322 321 318 317 315 314 314 313 312 311 309 307 306 305 304 304 304 305 305 304 303 303 302 301 301 301 301 302 301 300 297 295 294 294 293 291 289 286 283 279 274 269 265 260 257 258 261 259 254 253 253 253 253 254 254 254 255 254 250 246 242 241 242 242 240 239
307 310 312 314 316 320 322 322 321 321 321 320 319 318 317 317 318 318 318 318 317 315 314 312 310 309 307 306 305 304 303 302 301 300 300 300 301 303 303 302 300 299 299 299 299 299 299 300 300 298 297 296 294 294 295 294 291 286 282 278 274 269 264 260 258 258 259 259 257 258 258 254 252 254 257 257 254 251 246 243 241 240 242 246 247
304 307 308 310 313 317 319 319 318 318 318 317 316 315 314 314 314 313 313 312 311 311 310 309 308 307 305 303 300 299 299 298 297 297 297 297 298 299 300 300 299 298 297 296 296 296 296 296 297 297 297 297 295 295 296 297 295 291 286 282 278 274 268 262 259 258 258 258 257 258 260 258 252 252 256 256 255 254 251 249 249 248 247 248 246
302 304 305 307 311 314 315 315 314 315 315 314 312 312 311 311 310 309 308 307 307 306 305 305 305 304 303 302 299 297 296 295 294 295 295 296 296 297 297 298 298 298 296 295 294 294 294 294 294 295 296 296 295 296 296 297 296 294 290 285 281 278 272 265 260 258 256 257 257 256 260 262 258 256 257 255 255 255 251 250 250 246 242 240 237
301 303 303 305 308 310 310 310 311 311 311 310 308 308 308 307 306 306 305 304 303 302 302 301 301 300 300 300 299 298 296 295 294 294 295 296 296 297 296 296 296 296 295 294 293 292 292 292 292 292 293 294 295 296 296 297 296 295 293 290 286 281 274 268 266 262 256 255 256 256 257 261 262 262 260 257 257 255 248 244 242 238 234 234 232
301 302 302 303 304 304 304 306 308 308 307 306 305 304 304 303 303 303 302 301 301 301 300 299 298 297 297 297 297 297 296 296 296 295 295 296 296 296 296 295 294 294 294 293 292 291 290 289 289 289 290 291 294 295 295 295 296 295 294 292 289 283 276 273 276 275 266 258 256 255 255 255 257 261 260 258 258 253 245 243 243 238 234 232 230
301 301 300 300 299 298 300 303 305 306 305 303 303 302 301 301 301 301 301 300 300 300 299 298 297 296 296 295 295 295 295 295 295 294 294 294 294 294 294 293 292 291 292 291 291 290 289 288 287 287 287 289 291 293 294 293 294 295 293 292 289 282 278 280 285 282 274 265 258 255 256 255 254 257 258 257 255 249 244 244 245 241 238 236 231
300 299 297 295 295 295 298 301 303 304 303 302 301 301 300 300 301 301 301 300 299 299 297 296 295 295 295 294 294 293 293 293 293 292 291 291 292 292 291 290 289 289 289 289 289 288 287 287 287 286 285 287 288 290 291 290 291 292 290 288 284 280 281 285 285 278 272 268 261 257 257 257 255 256 257 256 253 248 244 245 245 243 243 239 233
296 293 292 292 292 294 297 301 302 303 302 301 301 300 300 300 301 301 301 300 299 298 297 296 295 295 295 295 294 294 294 294 293 292 291 289 290 290 289 288 287 287 287 286 286 285 285 285 285 285 285 285 286 287 288 288 289 289 286 282 279 279 283 286 284 277 274 270 264 258 255 254 256 258 257 255 254 251 247 246 246 245 243 237 231
289 288 289 289 291 295 298 301 302 302 301 301 300 299 299 300 301 301 301 300 299 298 297 297 296 296 296 296 295 295 296 296 295 293 292 290 290 290 288 287 286 285 284 283 283 282 282 282 282 283 284 284 283 285 287 288 288 286 284 281 280 280 283 286 285 280 276 273 268 263 257 253 252 255 256 255 255 253 249 246 246 247 244 238 234
285 286 287 290 294 298 300 301 301 301 300 300 299 299 300 301 301 301 301 300 299 298 298 298 297 297 296 296 296 296 296 296 295 294 292 291 289 289 287 286 285 283 280 279 279 279 279 280 281 282 282 281 281 283 286 287 286 285 283 282 282 282 283 286 285 281 277 274 271 267 263 256 251 251 253 253 253 252 249 247 248 248 243 238 238
283 285 289 293 297 300 301 301 301 300 300 300 300 301 301 301 301 301 301 300 299 298 298 299 298 297 296 295 295 296 295 295 294 293 292 290 289 289 287 285 283 281 277 277 277 278 279 279 280 279 277 276 279 283 285 284 283 283 282 281 282 282 282 282 282 280 278 275 270 265 263 259 253 250 249 250 251 251 251 252 253 249 243 239 240
283 288 293 297 300 301 301 301 300 300 300 301 302 302 302 302 302 302 302 301 300 298 298 298 297 295 295 294 294 294 294 294 293 292 291 289 287 286 285 284 282 279 277 276 276 276 276 275 274 272 272 275 280 283 283 281 280 281 281 280 281 281 280 280 280 280 279 275 269 264 261 259 256 252 249 250 252 254 255 254 251 248 243 239 239
289 293 297 299 300 300 300 299 300 300 301 303 303 302 302 303 302 302 302 301 300 299 297 297 296 295 293 293 293 293 293 293 292 291 290 288 288 287 287 285 281 276 274 275 277 277 276 274 274 274 276 279 282 281 280 279 279 279 279 279 279 279 279 279 278 279 278 275 270 265 260 259 259 256 253 252 252 251 252 251 249 246 242 237 235
295 297 299 299 299 298 299 299 301 302 303 303 303 302 303 303 303 303 302 301 299 298 296 296 295 294 293 293 294 294 294 293 293 293 293 291 290 288 284 279 276 276 278 280 281 281 280 280 280 281 281 281 280 278 277 277 277 277 278 278 278 278 278 278 278 278 277 275 271 266 261 260 263 262 257 253 250 249 250 249 248 245 240 234 229
298 298 298 298 297 298 299 301 303 304 303 303 303 304 304 304 304 303 302 301 299 297 297 296 295 294 294 294 295 295 294 294 293 293 292 289 286 283 281 281 282 284 286 287 286 286 286 286 286 285 283 281 279 279 278 277 276 276 276 277 277 277 277 277 277 276 274 272 270 267 262 260 262 262 257 253 250 250 249 247 245 242 237 229 222
297 297 296 296 297 300 302 303 304 304 304 304 304 304 304 304 303 302 302 301 300 298 295 294 294 294 294 293 292 291 290 291 291 289 287 284 283 282 283 284 285 286 285 285 285 285 285 284 283 282 279 278 278 280 280 279 277 276 276 276 277 277 277 277 276 273 271 270 269 268 265 261 260 261 259 254 251 249 248 246 241 236 231 224 218
296 295 296 297 300 302 303 304 304 304 304 305 305 305 304 304 303 302 302 302 303 300 294 289 288 289 289 288 288 286 285 286 288 287 286 285 284 283 283 282 282 282 281 280 280 280 279 278 277 275 275 275 276 278 278 277 276 275 275 275 275 276 276 276 275 273 271 270 269 269 267 264 261 261 259 255 251 249 247 243 237 230 224 217 213
295 296 298 300 302 304 304 304 304 305 305 306 306 305 305 304 303 303 302 303 303 302 298 292 287 285 285 285 286 285 285 285 286 286 286 287 286 285 285 284 284 282 280 279 279 278 277 275 274 273 273 274 274 274 274 274 274 275 275 275 274 274 274 275 275 274 273 273 271 269 267 264 261 260 258 254 251 248 244 237 230 223 218 213 209
296 298 301 302 303 303 303 304 305 306 306 306 305 306 306 306 305 305 306 305 303 301 299 297 295 294 290 286 286 287 287 287 287 287 287 287 286 285 284 284 284 283 280 279 280 278 275 272 271 271 271 271 270 270 270 270 270 271 271 271 271 271 272 273 274 274 274 274 271 269 267 264 261 260 258 254 249 245 240 233 226 219 214 210 207
298 300 302 302 302 303 304 305 306 306 305 306 306 307 308 306 305 306 307 307 305 303 302 301 302 301 298 290 286 286 286 287 287 287 287 286 285 284 284 284 284 282 278 276 276 275 273 271 270 269 268 268 267 267 267 267 267 268 269 269 270 271 270 271 273 274 274 272 268 266 266 265 263 260 257 253 248 242 238 233 226 220 213 208 206
300 301 301 301 302 304 305 306 306 305 305 306 307 308 308 307 306 305 306 307 308 308 307 306 304 302 300 295 291 287 286 287 287 286 286 287 287 286 287 287 284 281 278 275 272 270 269 268 267 266 266 266 266 265 265 265 265 266 266 266 267 268 268 269 270 271 272 270 266 263 264 264 262 258 254 250 245 239 235 232 226 218 211 208 207
300 300 301 302 303 305 306 306 305 305 306 307 308 309 309 309 308 306 304 304 304 306 307 307 306 304 301 299 297 292 288 287 287 287 286 286 287 287 287 286 283 281 279 276 272 269 267 266 264 263 263 263 264 265 265 266 266 266 266 267 267 268 270 271 271 270 269 268 264 261 261 261 259 254 250 247 242 236 230 227 222 216 210 208 207
300 301 301 303 305 306 306 305 306 307 308 309 310 311 310 310 309 306 305 303 302 302 304 306 307 306 303 301 299 297 293 289 288 288 287 286 287 287 285 282 280 279 278 276 273 270 269 268 266 265 265 264 264 264 264 264 264 265 266 266 267 268 269 269 269 269 268 268 265 260 257 257 255 250 244 241 239 236 231 225 219 213 208 205 204
301 302 304 306 307 306 306 307 308 309 310 311 312 312 312 311 309 307 306 304 302 302 302 304 306 306 304 303 302 301 299 295 291 289 288 287 286 283 279 277 277 276 275 274 272 270 268 266 264 265 266 267 267 269 269 268 267 266 265 263 264 265 265 264 264 264 265 266 265 261 256 254 252 248 241 235 232 231 228 224 218 212 207 205 204
302 304 305 307 307 307 308 309 310 311 312 313 313 313 312 312 311 309 306 305 304 302 302 303 304 304 304 304 305 304 302 300 297 294 292 291 289 285 282 280 278 277 276 275 274 271 269 267 266 265 265 265 266 268 269 269 269 268 266 265 264 264 264 264 264 263 262 262 261 258 254 251 250 246 240 234 230 227 225 222 219 213 209 207 206
304 306 307 307 308 308 309 310 311 313 314 314 315 315 314 313 312 310 308 306 305 303 303 303 303 302 303 305 306 305 303 301 299 297 296 294 291 289 286 283 280 278 276 275 274 272 270 270 271 272 270 269 269 270 271 271 270 268 266 266 266 265 265 264 264 264 262 260 259 255 251 248 247 244 239 233 229 226 223 220 218 215 213 210 208
306 307 308 308 309 310 311 312 313 315 316 316 316 317 316 314 313 311 309 308 307 305 305 304 302 303 304 304 304 303 301 298 295 294 293 291 289 288 285 282 280 279 277 275 275 274 272 271 271 271 270 270 270 271 272 273 272 270 269 267 265 264 264 263 263 262 260 259 259 255 249 246 245 242 238 233 228 225 223 221 219 217 215 212 209
307 308 309 310 311 312 313 314 315 317 317 317 318 318 317 316 315 313 311 309 308 307 306 304 303 304 305 304 302 300 297 294 293 292 291 289 288 286 284 281 280 278 277 276 275 275 273 272 272 272 271 271 271 270 271 271 271 271 271 269 266 264 263 263 262 261 258 256 256 253 248 245 243 240 236 233 229 225 223 222 219 216 214 212 210
308 309 309 311 313 314 314 316 317 318 319 319 319 320 320 319 317 315 312 311 310 309 308 307 306 307 308 306 304 302 298 295 294 293 292 290 289 287 284 282 281 279 277 276 275 274 273 273 273 273 273 272 272 271 271 271 271 270 271 273 272 269 267 266 264 261 257 254 252 249 246 244 243 240 237 233 227 222 219 217 215 214 213 211 209
308 309 311 313 314 315 316 318 319 320 320 321 322 322 322 321 319 317 315 314 313 312 310 310 310 311 310 309 307 304 301 299 297 295 293 292 291 289 287 285 283 281 280 278 277 276 275 274 272 272 272 272 271 270 270 271 271 271 272 272 271 270 270 270 266 259 255 252 249 246 244 243 242 240 236 230 225 220 217 215 214 213 213 210 208
309 310 312 314 315 316 318 319 320 321 322 324 324 324 324 324 322 321 319 317 316 315 313 312 312 312 311 311 310 308 305 303 300 298 295 294 292 290 289 288 286 284 282 281 279 278 277 275 273 271 270 269 269 269 269 268 268 269 269 269 269 269 269 269 266 259 253 249 247 244 242 242 241 238 233 228 223 219 216 215 214 213 211 209 206
311 312 313 315 317 318 319 321 322 323 324 325 325 326 327 327 326 325 322 320 318 317 316 315 315 314 313 313 312 311 308 306 304 300 298 296 293 291 289 288 286 283 281 279 278 276 275 274 273 272 272 272 272 273 274 271 269 269 268 268 270 269 266 267 269 262 251 245 244 243 241 239 238 235 231 226 222 218 215 214 213 212 210 208 206
312 314 315 316 318 319 321 323 325 326 326 327 327 328 330 330 329 327 325 323 321 320 319 318 318 317 315 315 314 312 311 310 307 304 302 300 298 295 293 291 288 286 283 280 278 276 273 273 272 271 271 271 271 272 272 269 267 267 264 263 263 263 262 266 270 260 248 243 244 242 239 238 236 233 230 225 220 216 214 212 211 210 210 208 205
313 315 316 317 319 321 324 326 327 327 327 328 329 331 332 332 331 330 328 326 325 323 321 321 321 320 319 318 317 315 314 313 311 309 307 306 304 302 300 297 295 292 288 285 281 277 273 270 268 266 265 264 264 263 263 262 261 261 260 259 260 260 260 264 265 255 245 245 247 242 238 236 235 231 228 224 218 214 212 210 210 210 209 207 204
314 315 317 319 321 323 325 326 327 328 329 330 332 334 334 334 334 333 331 329 328 326 324 324 324 324 323 321 320 319 319 318 316 314 313 311 310 309 307 305 302 299 296 293 289 284 278 273 270 268 266 265 264 264 263 263 262 262 260 259 260 260 258 259 261 255 248 247 246 242 238 235 233 230 227 223 218 215 212 210 209 208 206 204 202
316 317 319 321 323 324 325 327 328 329 330 331 333 336 337 336 336 335 333 332 331 331 330 329 328 327 326 325 325 324 323 322 321 320 318 317 317 316 314 312 310 307 305 302 299 295 289 283 279 274 271 268 266 264 263 261 260 260 259 258 258 256 253 252 253 253 251 249 245 240 237 234 231 229 227 223 219 215 212 210 207 205 202 200 198
318 319 321 322 323 324 326 328 329 330 331 333 335 337 338 338 338 338 337 335 335 335 335 334 332 331 330 329 329 328 326 325 325 324 323 323 322 320 318 316 314 312 310 308 305 302 297 292 286 281 275 271 267 264 261 259 257 257 257 256 254 251 249 246 244 245 248 248 244 239 234 231 228 226 224 221 217 213 210 208 205 202 200 198 194
319 320 321 322 323 325 327 328 330 331 332 335 337 339 339 339 340 341 340 339 338 338 338 336 335 335 334 333 332 331 329 328 327 327 327 328 326 324 321 318 316 314 313 311 310 308 304 299 294 288 281 276 271 265 260 256 253 252 252 251 249 246 244 242 240 243 248 248 243 237 233 229 227 224 221 218 214 210 208 206 203 200 198 196 192